This is the latest recevied weather packets stored in our database for station/object KG4GJX. If no packets are shown the sender has not sent any weather packets the latest 10 day(s).
| Time | Temp. | Humidity | Pressure | Rain* | Wind** | Luminosity | Snow |
|---|---|---|---|---|---|---|---|
| 1788402279 | 25° C | 98% | 1018.6 hPa | 0 mm | - | - | - |
| 1788401617 | 25° C | 97% | 1018.6 hPa | 0 mm | - | - | - |
| 1788400295 | 25.56° C | 96% | 1018.6 hPa | 0 mm | - | - | - |
| 1788399633 | 26.11° C | 95% | 1018.2 hPa | 0 mm | - | - | - |
| 1788398970 | 26.11° C | 93% | 1018.2 hPa | 0 mm | - | - | - |
| 1788398308 | 26.67° C | 91% | 1018.2 hPa | 0 mm | - | - | - |
| 1788397646 | 26.67° C | 90% | 1018.2 hPa | 0 mm | - | - | - |
| 1788396983 | 27.22° C | 88% | 1018.2 hPa | 0 mm | - | - | - |
| 1788396321 | 27.22° C | 87% | 1017.9 hPa | 0 mm | - | - | - |
| 1788395659 | 27.78° C | 85% | 1017.9 hPa | 0 mm | - | - | - |
| 1788394996 | 28.33° C | 84% | 1017.9 hPa | 0 mm | - | - | - |
| 1788394334 | 28.89° C | 81% | 1017.9 hPa | 0 mm | - | - | - |
| 1788393672 | 29.44° C | 78% | 1017.9 hPa | 0 mm | - | - | - |
| 1788393009 | 30.56° C | 73% | 1017.9 hPa | 0 mm | - | - | - |
| 1788392347 | 31.67° C | 69% | 1017.9 hPa | 0 mm | - | - | - |
| 1788391685 | 32.78° C | 64% | 1017.9 hPa | 0 mm | - | - | - |
| 1788391022 | 33.89° C | 58% | 1017.9 hPa | 0 mm | - | - | - |
| 1788390360 | 35° C | 54% | 1017.9 hPa | 0 mm | - | - | - |
| 1788389698 | 35.56° C | 51% | 1018.2 hPa | 0 mm | - | - | - |
| 1788389035 | 36.67° C | 48% | 1018.2 hPa | 0 mm | - | - | - |
| 1788388373 | 37.22° C | 46% | 1018.2 hPa | 0 mm | - | - | - |
| 1788387710 | 37.22° C | 43% | 1018.2 hPa | 0 mm | - | - | - |
| 1788387048 | 37.22° C | 43% | 1018.2 hPa | 0 mm | - | - | - |
| 1788386386 | 37.78° C | 42% | 1018.2 hPa | 0 mm | - | - | - |
| 1788385723 | 37.22° C | 45% | 1018.2 hPa | 0 mm | - | - | - |
* Rain latest hour (hover to see other rain measurements)
** Current wind speed in m/s (hover to see current wind gust speed)